Portada
METAR-TAF:

METAR-TAF

Aeroports :

Hyderabad, Índia

latitud: 17-27N, longitud: 078-28E, altitud: 530 m

Observació

L'informe es va fer fa 2 hores i 16 minuts, a les 15:30 UTC
Vent 5 kt del Nord-Oest
Temperatura 25°C
Humitat 89%
Pressió 1016 hPa
Visibilitat: 3000 m
Núvols disperses a una alçada de 1500 ft
Cel ennuvolat a una alçada de 8000 ft
pluja

METAR: VOHY 231530Z 32005KT 3000 RA SCT015 BKN080 25/23 Q1016 NOSIG

Hora: 23:16 (17:46 UTC)


TAF: manca

Observacions i pronòstics meteorològics de més de 4000 aeroports (METAR i TAF).

Les estacions disponibles són els punts grocs i vermells al mapa.

Posi el ratolí al punt desitjat per veure el nom de l'estació.

Feu clic per veure les observacions i els pronòstics meteorològics.

Per canviar el mapa: feu clic els botons verds amb una creu de color negre per apropar; al botó verd amb un guió per allunyar la imatge; o en les fletxes verdes per a mapes adjacents.


METAR-TAF: